OpenBCM V1.08-3-g9b42 (Linux)

Packet Radio Mailbox

OK0NBR

[Sao_Jose_dos_Campo]

 Login: GUEST





  
I0OJJ  > KEPS     07.10.25 18:03l 313 Lines 14849 Bytes #154 (0) @ AMSAT
BID : ORB25280.1
Read: GUEST
Subj: 2Line Orbital Elements 25280.AMSAT
Path: OK0NBR<IW0QNL<IZ3LSV<DB0ERF<DK0WUE<PD0LPM<IR0AAB<I0OJJ
Sent: 251007/0021z @:I0OJJ.ITA.EU [Rome] obcm1.08-11-2-gbfe9
From: I0OJJ @ I0OJJ.ITA.EU (Gustavo)
To:   KEPS @ AMSAT
X-Info: This message was generated automatically


QST de W1STR

AMSAT Orbital Elements for Amateur Satellites in TLE Format
From Orbital Analysis Office
New England Sci-Tech STEM Education Center
Natick MA October 07, 2025
To all radio amateurs


These element sets describe the orbits of various satellites 
in use by the amateur radio community. For details see:
www.amsat.org/keplerian-elements-formats/

A daily update of element sets is available at:
www.amsat.org/tle/daily-bulletin.txt
or without bulletin text:
www.amsat.org/tle/dailytle.txt


AO-07
1 07530U 74089B   25279.48621759 -.00000025  00000-0  13336-3 0  9997
2 07530 101.9989 285.0354 0011909 255.3189 260.0676 12.53692229328724
UO-11
1 14781U 84021B   25279.43504374  .00002481  00000-0  26426-3 0  9999
2 14781  97.7695 243.5653 0006450 312.8953  47.1722 14.89796609219330
AO-27
1 22825U 93061C   25279.44830683  .00000222  00000-0  10172-3 0  9999
2 22825  98.7243 341.5248 0009385 121.3204 238.8898 14.30840880670712
FO-29
1 24278U 96046B   25279.41919953  .00000016  00000-0  51061-4 0  9998
2 24278  98.5544 157.5689 0350577  34.7743 327.5778 13.53256207438846
NOAA-15
1 25338U 98030A   25279.51927630  .00000273  00000-0  12971-3 0  9994
2 25338  98.5299 301.7601 0010507  17.4321 342.7219 14.27030804425114
GO-32
1 25397U 98043D   25279.48111363  .00000174  00000-0  95469-4 0  9991
2 25397  98.9850 261.1599 0000840 172.0991 188.0200 14.24348988415214
ISS
1 25544U 98067A   25279.52978863  .00010178  00000-0  18789-3 0  9996
2 25544  51.6318 115.2314 0000898 206.6768 153.4175 15.49721699532439
NO-44
1 26931U 01043C   25279.18958123  .00000322  00000-0  15151-3 0  9994
2 26931  67.0508 181.1580 0007091 273.9962  86.0330 14.31799182254082
SO-50
1 27607U 02058C   25279.53727112  .00002428  00000-0  31138-3 0  9995
2 27607  64.5542 193.2395 0067800 309.2722  50.2380 14.82041144226858
CO-55
1 27844U 03031E   25279.00202286  .00000614  00000-0  28580-3 0  9994
2 27844  98.6790 285.7696 0009189 197.3727 162.7138 14.24095859155491
CO-57
1 27848U 03031J   25279.00622284  .00000519  00000-0  24769-3 0  9991
2 27848  98.6821 285.6891 0008759 216.0302 144.0287 14.23416409155211
RS-22
1 27939U 03042A   25279.59294926  .00001958  00000-0  31514-3 0  9990
2 27939  98.3372  92.0223 0011333 358.8688  88.6091 14.72685282178215
CO-58
1 28895U 05043F   25279.47169208  .00002674  00000-0  43882-3 0  9993
2 28895  98.2665  65.4552 0013355 291.7944  68.1841 14.71485064 64424
CO-65
1 32785U 08021C   25279.55066709  .00007999  00000-0  55506-3 0  9997
2 32785  97.7984 251.7793 0010055 159.5485 200.6146 15.05819578946976
CO-66
1 32791U 08021J   25279.58836358  .00018783  00000-0  82136-3 0  9994
2 32791  97.7389 262.6048 0006278 106.7791 253.4134 15.22110641948577
RS-30
1 32953U 08025A   25279.59134992  .00000047  00000-0  26737-3 0  9993
2 32953  82.5041 153.1882 0019383 142.9112 217.3312 12.43168981788180
NOAA-19
1 33591U 09005A   25279.48652160  .00000113  00000-0  84211-4 0  9997
2 33591  98.9856 344.7926 0014206  31.9256 328.2774 14.13415632858646
SRMSAT
1 37841U 11058D   25279.02713205  .00000528  00000-0  14309-3 0  9998
2 37841  19.9709 157.7532 0011687 287.6010 208.8037 14.11476428721867
ZACUBE-1
1 39417U 13066B   25279.41790403  .00007869  00000-0  65951-3 0  9992
2 39417  97.7923 235.9615 0043291  17.5421 342.7284 14.97940879642698
Delfi-N3xt
1 39428U 13066N   25279.49998140  .00011681  00000-0  11358-2 0  9998
2 39428  97.8291 195.8971 0080897 329.8867  29.7712 14.90261536636773
GOMX-1
1 39430U 13066Q   25279.57542103  .00003087  00000-0  47845-3 0  9996
2 39430  97.6681 130.8965 0131395 170.7814 189.5851 14.68158903632687
LO-74
1 39440U 13066AA  25279.58126108  .00005318  00000-0  52504-3 0  9998
2 39440  97.8588 223.4371 0061816 145.6676 214.8561 14.90949623639165
AO-73
1 39444U 13066AE  25279.57645754  .00012573  00000-0  89102-3 0  9999
2 39444  97.7961 242.1506 0039834 347.6742  12.3506 15.04288004641465
DTUSAT-2
1 40030U 14033W   25279.51670182  .00009071  00000-0  55993-3 0  9994
2 40030  98.0683 257.3066 0009751  31.7026 328.4788 15.10115800614332
EO-80
1 40032U 14033Y   25279.46431084  .00009797  00000-0  60310-3 0  9990
2 40032  98.0565 256.7407 0006870 334.4322  25.6565 15.10208737614304
LILACSAT-2
1 40908U 15049K   25279.56544161  .00016052  00000-0  37744-3 0  9999
2 40908  97.5000 302.9842 0010646  93.2598 266.9867 15.42015954556540
IO-86
1 40931U 15052B   25151.18580175  .00001241  00000-0  78118-4 0  9996
2 40931   6.0006  24.0987 0012733 338.8432  21.1169 14.78805930523159
Horyu-4
1 41340U 16012D   25279.57719515  .00040212  00000-0  86295-3 0  9999
2 41340  30.9962  48.5122 0003665 219.9965 140.0413 15.43462176531142
Lapan A3
1 41603U 16040E   25279.57817507  .00005074  00000-0  17274-3 0  9990
2 41603  97.1421 279.6129 0010167 193.5888 166.5081 15.30794946515986
CAS-2T
1 41847U 16066G   25279.47912548  .00002639  00000-0  38105-3 0  9998
2 41847  98.4111 352.8745 0344993 178.4997 181.7316 14.43838891468173
CAS-4B
1 42759U 17034B   25279.53552914  .00735424  26459-3  11416-2 0  9990
2 42759  42.9952 320.9214 0017884  57.3352 302.9250 16.02980946461359
CAS-4A
1 42761U 17034D   25279.49215203  .01694686  24919-2  11883-2 0  9996
2 42761  42.9963 315.4916 0013546  63.3163 296.9106 16.15735118461399
TechnoSat
1 42829U 17042E   25279.42121549  .00004843  00000-0  36691-3 0  9999
2 42829  97.3979  82.5834 0017605 239.7769 120.1714 15.02594344448563
AO-91
1 43017U 17073E   25279.41957957  .00009352  00000-0  45575-3 0  9993
2 43017  97.5046 147.2202 0168144 120.7185 241.0729 15.06885250427091
S-Net D
1 43186U 18014G   25279.26239888  .00006978  00000-0  39681-3 0  9997
2 43186  97.5496 180.9573 0009128 163.2667 196.8867 15.13154945420311
S-Net B
1 43187U 18014H   25279.46779283  .00007232  00000-0  41123-3 0  9996
2 43187  97.5498 181.1384 0009969 159.4779 200.6855 15.13134558420343
S-Net A
1 43188U 18014J   25279.46075105  .00007088  00000-0  40285-3 0  9996
2 43188  97.5506 181.2976 0009850 159.7591 200.4032 15.13163094420348
S-Net C
1 43189U 18014K   25279.53663572  .00007305  00000-0  41527-3 0  9998
2 43189  97.5523 181.4070 0011523 154.2995 205.8811 15.13129466418901
Ten-Koh
1 43677U 18084G   25279.53674333  .00003312  00000-0  26301-3 0  9991
2 43677  98.0751  96.5083 0007901 216.4520 143.6166 15.01202431378089
PO-101
1 43678U 18084H   25279.57453233  .00003877  00000-0  32571-3 0  9992
2 43678  98.1059 100.3351 0007496 242.9596 117.0861 14.98928628378209
QO-100
1 43700U 18090A   25279.57111873  .00000000  00000-0  00000-0 0  9990
2 43700   0.0223 199.9385 0001951  37.1636   9.7620  1.00269822 25134
MinXSS-2
1 43758U 18099A   25279.55580974  .00024197  00000-0  82857-3 0  9998
2 43758  97.4900 346.2069 0011825  98.1291 262.1291 15.30151687375134
AO-95
1 43770U 18099N   25279.41496187  .00011909  00000-0  56009-3 0  9996
2 43770  97.4790 336.2716 0011001 151.9709 208.2120 15.19672565374581
SNUSat 2
1 43782U 18099AA  25279.39554647  .00008933  00000-0  46005-3 0  9990
2 43782  97.4469 332.0018 0013182 101.8125 258.4587 15.16556895374492
SnugLite
1 43784U 18099AC  25279.41849268  .00012332  00000-0  57447-3 0  9991
2 43784  97.4285 331.8594 0004863 101.4233 258.7548 15.20035543374675
ITASat 1
1 43786U 18099AE  25279.14472742  .00009013  00000-0  49010-3 0  9991
2 43786  97.4441 330.8985 0014715 150.9387 209.2667 15.14605944374393
EAGLET 1
1 43790U 18099AJ  25279.40551928  .00005264  00000-0  32571-3 0  9997
2 43790  97.4639 330.6809 0013005 136.1201 224.1064 15.10163028373992
ESEO
1 43792U 18099AL  25279.51999591  .00002527  00000-0  19121-3 0  9998
2 43792  97.4367 322.4241 0014444 115.3394 244.9329 15.03104312373684
JO-97
1 43803U 18099AX  25279.24675554  .00015386  00000-0  63794-3 0  9993
2 43803  97.4536 337.3939 0008369  92.2073 268.0123 15.23941156374823
Suomi 100
1 43804U 18099AY  25279.40272395  .00011868  00000-0  53737-3 0  9995
2 43804  97.4600 336.4693 0013162  94.7058 265.5681 15.20958157374748
ISAT
1 43879U 18111D   25279.55336828  .00031941  00000-0  92037-3 0  9990
2 43879  97.5877 196.9176 0010384 123.9698 236.2534 15.35623516371912
UWE-4
1 43880U 18111E   25279.30039592  .00023030  00000-0  78929-3 0  9997
2 43880  97.5823 194.2041 0012545 140.8158 219.3993 15.30125951371755
Sparrow
1 43881U 18111F   25279.36239434  .00034019  00000-0  92975-3 0  9997
2 43881  97.6051 200.1071 0007471 147.1759 212.9950 15.37287946371997
Prox-1
1 44339U 19036A   25279.53121655  .00014289  00000-0  16947-2 0  9998
2 44339  23.9978 359.0263 0006737 359.5705   0.4786 14.82743117335675
Taurus 1
1 44530U 19059C   25279.51297931  .00008835  00000-0  15632-2 0  9995
2 44530  98.6196  64.7630 0008933  27.9767 332.1915 14.67580326321376
Duchifat 3
1 44854U 19089C   25279.48100585  .00128032  00000-0  13656-2 0  9997
2 44854  36.9368 312.5023 0007006 171.8831 188.2045 15.62591780321503
TO-108
1 44881U 19093C   25279.56582559  .00001754  00000-0  20722-3 0  9990
2 44881  97.7828 352.6847 0013304 195.2436 164.8381 14.85870904313749
FloripaSat 1
1 44885U 19093G   25279.49557543  .00007466  00000-0  60513-3 0  9999
2 44885  97.8117   7.4205 0010236 175.4407 184.6911 14.99950123314564
RS-44
1 44909U 19096E   25279.38868562  .00000049  00000-0  14924-3 0  9998
2 44909  82.5218 148.3671 0217960  18.0404 342.8279 12.79744277269884
UPMSat 2
1 46276U 20061E   25279.19122688  .01147751  91996-3  89453-3 0  9991
2 46276  97.2270 359.6234 0007140 258.6065 101.4420 16.14998033284202
SALSAT
1 46495U 20068K   25279.49403183  .00009928  00000-0  40402-3 0  9992
2 46495  97.8729 263.2427 0013086 106.5419 253.7256 15.24657855276634
